Hourly Weather Roundup
Issued by NWS Central Illinois

Home | Current Version | Previous Version | Text Only | Print | Product List | Glossary On
Versions: 1 2 3 4 5 6 7 8 9 10 11 12 13 14 15 16 17 18 19 20 21 22 23 24 25 26 27 28 29 30 31 32 33 34 35 36 37 38 39 40 41 42 43 44 45 46 47 48 49 50
000
NZUS43 KILX 222010
HWRILX

AREA WEATHER ROUNDUP
NATIONAL WEATHER SERVICE, LINCOLN IL
200 PM CST WED FEB 22 2017


CITY           SKY/WX    TMP DP  RH WIND       PRES   REMARKS
BLOOMINGTON    PTSUNNY   66  57  72 SW16      29.73F
CHAMPAIGN      PTSUNNY   69  55  60 SW14G22   29.75F
DECATUR        MOSUNNY   65  55  70 SW16      29.75F
EFFINGHAM      CLOUDY    71  58  64 S9G16     29.77F
FLORA          MOSUNNY   71  58  63 S15       29.77F
GALESBURG      SUNNY     68  55  64 S16       29.66F
JACKSONVILLE   CLOUDY    61  56  84 S9G17     29.74F
LACON          SUNNY     65  55  70 SW10      29.68F
LAWRENCEVILLE  MOSUNNY   71  58  63 S16       29.78F
LITCHFIELD     SUNNY     65  58  77 S12       29.75F
$$


CITY           SKY/WX    TMP DP  RH WIND       PRES   REMARKS
LINCOLN        MOSUNNY   68  58  72 S10       29.73F
MACOMB         SUNNY     68  57  67 SW20G29   29.70F
MATTOON        PTSUNNY   67  57  70 SW10      29.75F
MT CARMEL AP   MOSUNNY   70  56  61 S17       29.77F
OLNEY-NOBLE AP PTSUNNY   70  61  73 S15       29.78F
PARIS          CLOUDY    67  58  72 SW14      29.77F
PEORIA         MOSUNNY   63  56  78 S15       29.70F
PONTIAC        MOSUNNY   65  59  81 SW17      29.72F
RANTOUL        PTSUNNY   71  57  61 SW17      29.74F
SPRINGFIELD    CLOUDY    62  56  80 S14       29.74F HAZE
TAYLORVILLE    MOSUNNY   65  56  74 S12       29.75F
$$

...REGIONAL REPORTS...


CITY           SKY/WX    TMP DP  RH WIND       PRES   REMARKS
CHICAGO O`HARE MOSUNNY   65  53  65 SW18G24   29.67F
KANKAKEE       CLOUDY    64  56  75 S10       29.74F
MOLINE         SUNNY     73  52  47 S16       29.60F
MOUNT STERLING SUNNY     65  56  70 S16       29.70F
MOUNT VERNON   MOSUNNY   70  56  61 SW14      29.78F
PITTSFIELD     MOSUNNY   66  59  77 S10       29.73F
QUINCY         SUNNY     67  56  67 S18G26    29.69F
ROCKFORD       MOSUNNY   69  52  54 S15       29.65F
$$


CITY           SKY/WX    TMP DP  RH WIND       PRES   REMARKS
BURLINGTON     SUNNY     70  55  59 SW18G25   29.64F
CEDAR RAPIDS   SUNNY     74  44  34 S22G29    29.55F
DES MOINES     MOSUNNY   71  34  25 W20       29.59F
KIRKSVILLE     SUNNY     74  47  38 S21G26    29.64F
OTTUMWA        SUNNY     79  37  22 S22       29.57F
ST LOUIS       MOSUNNY   70  56  61 SW8       29.75F
$$


CITY           SKY/WX    TMP DP  RH WIND       PRES   REMARKS
TERRE HAUTE    PTSUNNY   69  55  60 S15G21    29.77F
EVANSVILLE     MOSUNNY   72  56  57 S14       29.80F
INDIANAPOLIS   PTSUNNY   67  55  65 S10       29.78F
LAFAYETTE      PTSUNNY   65  55  70 S13       29.76F
MADISON        PTSUNNY   67  46  47 S13G20    29.57F
MILWAUKEE      MOSUNNY   70  50  49 SW18G26   29.61F
$$






USA.gov is the U.S. government's official web portal to all federal, state and local government web resources and services.